Weather History for KSLK - January, 2014

Change the Weather History Date:

Friday, January 31, 2014

  Actual Average Record
Temperature  
Mean Temperature 24 °F 13 °F  
Max Temperature 26 °F 26 °F 54 °F (1988)
Min Temperature 21 °F 1 °F -25 °F (1999)
Degree Days  
Heating Degree Days 41 52  
Month to date heating degree days 1668 1603  
Since 1 July heating degree days 5506 5302  
Cooling Degree Days 0 0  
Month to date cooling degree days 0  
Year to date cooling degree days 0  
Moisture  
Dew Point 15 °F    
Average Humidity 60    
Maximum Humidity 81    
Minimum Humidity 38    
Precipitation  
Precipitation T in 0.08 in 0.71 in (1969)
Month to date precipitation 1.55 2.13  
Year to date precipitation 1.55 2.13  
Sea Level Pressure  
Sea Level Pressure 29.94 in    
Wind  
Wind Speed 12 mph (SW)    
Max Wind Speed 22 mph    
Max Gust Speed 35 mph    
Visibility 5 miles    
Events Snow    
T = Trace of Precipitation, MM = Missing Value Source: NWS Daily Summary

Daily Weather History Graph

Daily Weather History Graph

Search for Another Location

Airport or City:

Trip Planner

Search our weather history database for the weather conditions in past years. The results will help you decide how hot, cold, wet, or windy it might be!

Date:

Astronomy

Jan. 31, 2014 Rise Set
Actual Time 7:16 AM EST 5:04 PM EST
Civil Twilight 6:45 AM EST 5:35 PM EST
Nautical Twilight 6:10 AM EST 6:10 PM EST
Astronomical Twilight 5:36 AM EST 6:44 PM EST
Moon 7:20 AM EST (1/31) 6:31 PM EST (1/31)
Length of Visible Light 10h 50m
Length of Day
9h 48m
New Moon, 1% of the Moon is Illuminated
Jan 31
New Moon
Feb 6
First Quarter
Feb 14
Full
Feb 22
Last Quarter
Mar 1
New

Hourly Weather History & Observations

Time (EST) Temp. Windchill Dew Point Humidity Pressure Visibility Wind Dir Wind Speed Gust Speed Precip Events Conditions
12:51 AM 23.0 °F 8.3 °F 1.0 °F 39% 29.84 in 10.0 mi SW 19.6 mph 26.5 mph N/A   Mostly Cloudy
1:51 AM 21.9 °F 7.8 °F -0.0 °F 38% 29.84 in 10.0 mi SW 17.3 mph 24.2 mph N/A   Overcast
2:51 AM 21.9 °F 7.8 °F 5.0 °F 48% 29.85 in 9.0 mi SW 17.3 mph 26.5 mph 0.00 in   Overcast
3:51 AM 23.0 °F 9.6 °F 3.9 °F 44% 29.85 in 10.0 mi SW 16.1 mph 27.6 mph N/A   Overcast
4:51 AM 23.0 °F 9.2 °F 3.0 °F 42% 29.86 in 10.0 mi SW 17.3 mph - N/A   Overcast
5:51 AM 21.9 °F 10.4 °F 3.0 °F 44% 29.86 in 10.0 mi WSW 11.5 mph 20.7 mph N/A   Overcast
6:51 AM 23.0 °F 11.1 °F 5.0 °F 46% 29.89 in 10.0 mi SW 12.7 mph 19.6 mph N/A   Overcast
7:20 AM 23.0 °F 11.7 °F 7.0 °F 50% 29.82 in 10.0 mi SW 11.5 mph 20.7 mph N/A   Overcast
7:38 AM 23.0 °F 11.1 °F 8.1 °F 53% 29.82 in 10.0 mi SW 12.7 mph - N/A   Overcast
7:51 AM 23.0 °F 11.1 °F 8.1 °F 53% 29.91 in 10.0 mi SW 12.7 mph - N/A   Overcast
8:49 AM 23.0 °F 9.6 °F 10.4 °F 59% 29.85 in 3.0 mi SW 16.1 mph 25.3 mph 0.00 in Snow Light Snow
8:51 AM 23.0 °F 9.6 °F 12.0 °F 63% 29.93 in 3.0 mi SW 16.1 mph 19.6 mph 0.00 in Snow Light Snow
9:11 AM 23.0 °F 10.1 °F 12.9 °F 65% 29.86 in 2.0 mi SW 15.0 mph 27.6 mph 0.00 in Snow Light Snow
9:23 AM 23.0 °F 11.1 °F 14.0 °F 68% 29.87 in 1.8 mi SW 12.7 mph 21.9 mph 0.00 in Snow Light Snow
9:31 AM 23.0 °F 11.7 °F 14.0 °F 68% 29.87 in 2.5 mi WSW 11.5 mph 21.9 mph 0.00 in Snow Light Snow
9:42 AM 21.9 °F 8.7 °F 15.1 °F 75% 29.89 in 1.2 mi WSW 15.0 mph 21.9 mph 0.00 in Snow Light Snow
9:51 AM 21.9 °F 9.2 °F 15.1 °F 75% 29.97 in 1.2 mi WSW 13.8 mph 21.9 mph 0.00 in Snow Light Snow
10:51 AM 23.0 °F 9.6 °F 17.1 °F 78% 29.97 in 1.8 mi SW 16.1 mph 24.2 mph 0.00 in Snow Light Snow
10:55 AM 23.0 °F 10.6 °F 17.1 °F 78% 29.89 in 3.0 mi SW 13.8 mph 23.0 mph 0.00 in Snow Light Snow
11:48 AM 24.8 °F 13.4 °F 17.6 °F 74% 29.90 in 1.8 mi SW 12.7 mph 25.3 mph 0.00 in Snow Light Snow
11:51 AM 24.1 °F 13.1 °F 17.1 °F 75% 29.97 in 1.2 mi WSW 11.5 mph 19.6 mph 0.00 in Snow Light Snow
12:51 PM 24.1 °F 15.2 °F 19.9 °F 84% 29.97 in 1.0 mi SW 8.1 mph - 0.00 in Snow Light Snow
1:09 PM 25.0 °F 16.3 °F 21.0 °F 85% 29.91 in 2.0 mi SW 8.1 mph - 0.00 in Snow Light Snow
1:27 PM 25.0 °F 16.3 °F 19.9 °F 81% 29.91 in 4.0 mi WSW 8.1 mph - 0.00 in   Haze
1:51 PM 25.0 °F 14.8 °F 19.9 °F 81% 29.99 in 1.8 mi WSW 10.4 mph 17.3 mph 0.00 in Snow Light Snow
2:30 PM 25.0 °F 17.1 °F 21.0 °F 85% 29.91 in 3.0 mi SW 6.9 mph - 0.00 in   Overcast
2:48 PM 26.6 °F 18.2 °F 21.2 °F 80% 29.91 in 2.5 mi SW 8.1 mph - 0.00 in Snow Light Snow
2:51 PM 26.1 °F 19.4 °F 21.0 °F 81% 29.98 in 2.5 mi SW 5.8 mph - 0.00 in Snow Light Snow
3:00 PM 26.1 °F 19.4 °F 21.0 °F 81% 29.91 in 4.0 mi WSW 5.8 mph - 0.00 in   Haze
3:20 PM 26.1 °F 16.2 °F 21.0 °F 81% 29.92 in 1.8 mi SW 10.4 mph - 0.00 in Snow Light Snow
3:32 PM 26.1 °F 16.2 °F 21.0 °F 81% 29.92 in 3.0 mi SW 10.4 mph 19.6 mph 0.00 in Snow Light Snow
3:45 PM 26.6 °F 16.2 °F 21.2 °F 80% 29.93 in 1.8 mi WSW 11.5 mph 18.4 mph 0.00 in Snow Light Snow
3:51 PM 26.1 °F 17.6 °F 21.0 °F 81% 30.01 in 1.5 mi WSW 8.1 mph - 0.00 in Snow Light Snow
4:24 PM 26.1 °F 16.2 °F 21.9 °F 84% 29.94 in 3.0 mi SW 10.4 mph - 0.00 in Snow Light Snow
4:51 PM 26.1 °F 16.2 °F 21.0 °F 81% 30.03 in 4.0 mi SW 10.4 mph - 0.00 in Snow Light Snow
5:51 PM 25.0 °F 14.2 °F 21.0 °F 85% 30.06 in 7.0 mi SW 11.5 mph - 0.00 in   Overcast
6:51 PM 24.1 °F 14.4 °F 19.9 °F 84% 30.08 in 10.0 mi SW 9.2 mph - N/A   Scattered Clouds
7:51 PM 24.1 °F 16.0 °F 19.0 °F 81% 30.09 in 9.0 mi SW 6.9 mph - N/A   Partly Cloudy
8:21 PM 24.1 °F 15.2 °F 19.0 °F 81% 30.03 in 9.0 mi SW 8.1 mph - N/A   Mostly Cloudy
8:51 PM 24.1 °F 17.0 °F 19.9 °F 84% 30.11 in 8.0 mi SW 5.8 mph - N/A   Overcast
9:51 PM 24.1 °F 15.2 °F 19.9 °F 84% 30.13 in 8.0 mi SW 8.1 mph - N/A   Overcast
10:51 PM 24.1 °F 15.2 °F 19.9 °F 84% 30.14 in 8.0 mi WSW 8.1 mph - N/A   Overcast
11:51 PM 25.0 °F 17.1 °F 19.9 °F 81% 30.16 in 8.0 mi WSW 6.9 mph - N/A   Overcast